• în România
  • Lista ţărilor
  • Pe 7 zile
  • Temperatura apei
  • Hartă satelitară
  • Meteo pe hartă
  • Widget-uri
  • user-avatar
    Intrare

    Meteo pe oră la Bansko

    Astăzi, 18 Octombrie, Miercuri

    Timp Temperatura Precipitaţii Vânt Presiune Umiditate
    00:00 +16°C° 0 mm 1 m/s 726 mmHg 55%
    01:00 +16°C° 0 mm 1 m/s 726 mmHg 56%
    02:00 +16°C° 0 mm 1 m/s 726 mmHg 55%
    03:00 +15°C° 0 mm 1 m/s 726 mmHg 56%
    04:00 +15°C° 0 mm 1 m/s 726 mmHg 56%
    05:00 +15°C° 0 mm 1 m/s 725 mmHg 57%
    06:00 +16°C° 0 mm 1 m/s 725 mmHg 56%
    07:00 +18°C° 0 mm 1 m/s 725 mmHg 55%
    08:00 +19°C° 0 mm 1 m/s 726 mmHg 51%
    09:00 +21°C° 0 mm 1 m/s 726 mmHg 45%
    10:00 +23°C° 0 mm 1 m/s 725 mmHg 39%
    11:00 +26°C° 0 mm 1 m/s 725 mmHg 33%
    12:00 +26°C° 0 mm 1 m/s 725 mmHg 32%
    13:00 +27°C° 0 mm 1 m/s 725 mmHg 30%
    14:00 +27°C° 0 mm 2 m/s 724 mmHg 29%
    15:00 +26°C° 0 mm 1 m/s 724 mmHg 33%
    16:00 +25°C° 0 mm 1 m/s 723 mmHg 37%
    17:00 +23°C° 0 mm 1 m/s 723 mmHg 41%
    18:00 +22°C° 0 mm 1 m/s 723 mmHg 44%
    19:00 +20°C° 0 mm 1 m/s 723 mmHg 48%
    20:00 +18°C° 0 mm 1 m/s 723 mmHg 51%
    21:00 +18°C° 0 mm 1 m/s 723 mmHg 53%
    22:00 +16°C° 0 mm 1 m/s 723 mmHg 54%
    23:00 +16°C° 0 mm 1 m/s 723 mmHg 55%

    Mâine, 19 Octombrie, Joi

    Timp Temperatura Precipitaţii Vânt Presiune Umiditate
    00:00 +15°C° 0 mm 1 m/s 723 mmHg 56%
    01:00 +15°C° 0 mm 1 m/s 723 mmHg 57%
    02:00 +15°C° 0 mm 1 m/s 723 mmHg 58%
    03:00 +14°C° 0 mm 1 m/s 722 mmHg 59%
    04:00 +14°C° 0 mm 1 m/s 722 mmHg 60%
    05:00 +14°C° 0 mm 1 m/s 722 mmHg 60%
    06:00 +15°C° 0 mm 1 m/s 722 mmHg 59%
    07:00 +15°C° 0 mm 1 m/s 722 mmHg 57%
    08:00 +16°C° 0 mm 1 m/s 722 mmHg 55%
    09:00 +20°C° 0 mm 1 m/s 723 mmHg 47%
    10:00 +22°C° 0 mm 1 m/s 723 mmHg 40%
    11:00 +25°C° 0 mm 1 m/s 723 mmHg 32%
    12:00 +25°C° 0 mm 1 m/s 723 mmHg 30%
    13:00 +26°C° 0 mm 1 m/s 722 mmHg 28%
    14:00 +26°C° 0 mm 1 m/s 722 mmHg 27%
    15:00 +25°C° 0 mm 1 m/s 722 mmHg 31%
    16:00 +24°C° 0 mm 1 m/s 721 mmHg 34%
    17:00 +22°C° 0 mm 1 m/s 721 mmHg 38%
    18:00 +21°C° 0 mm 1 m/s 721 mmHg 41%
    19:00 +19°C° 0 mm 1 m/s 721 mmHg 43%
    20:00 +16°C° 0 mm 1 m/s 722 mmHg 46%
    21:00 +16°C° 0 mm 1 m/s 722 mmHg 47%
    22:00 +15°C° 0 mm 1 m/s 722 mmHg 48%
    23:00 +15°C° 0 mm 1 m/s 722 mmHg 49%

    Poimâine, 20 Octombrie, Vineri

    Timp Temperatura Precipitaţii Vânt Presiune Umiditate
    00:00 +15°C° 0 mm 1 m/s 722 mmHg 50%
    01:00 +14°C° 0 mm 1 m/s 722 mmHg 50%
    02:00 +14°C° 0 mm 1 m/s 722 mmHg 51%
    03:00 +14°C° 0 mm 1 m/s 721 mmHg 51%
    04:00 +14°C° 0 mm 1 m/s 721 mmHg 51%
    05:00 +13°C° 0 mm 1 m/s 721 mmHg 52%
    06:00 +14°C° 0 mm 1 m/s 721 mmHg 51%
    07:00 +15°C° 0 mm 1 m/s 722 mmHg 50%
    08:00 +16°C° 0 mm 1 m/s 722 mmHg 49%
    09:00 +19°C° 0 mm 1 m/s 722 mmHg 43%
    10:00 +22°C° 0 mm 1 m/s 723 mmHg 37%
    11:00 +24°C° 0 mm 1 m/s 723 mmHg 31%
    12:00 +25°C° 0 mm 1 m/s 723 mmHg 30%
    13:00 +25°C° 0 mm 1 m/s 722 mmHg 30%
    14:00 +26°C° 0 mm 1 m/s 722 mmHg 29%
    15:00 +25°C° 0 mm 1 m/s 722 mmHg 33%
    16:00 +23°C° 0 mm 1 m/s 722 mmHg 37%
    17:00 +22°C° 0 mm 1 m/s 721 mmHg 42%
    18:00 +20°C° 0 mm 1 m/s 722 mmHg 45%
    19:00 +19°C° 0 mm 1 m/s 722 mmHg 48%
    20:00 +15°C° 0 mm 0 m/s 722 mmHg 51%
    21:00 +16°C° 0 mm 1 m/s 722 mmHg 53%
    22:00 +16°C° 0 mm 1 m/s 722 mmHg 54%
    23:00 +15°C° 0 mm 1 m/s 723 mmHg 56%

    21 Octombrie, Sâmbătă

    Timp Temperatura Precipitaţii Vânt Presiune Umiditate
    00:00 +15°C° 0 mm 1 m/s 723 mmHg 57%
    01:00 +15°C° 0 mm 1 m/s 723 mmHg 59%
    02:00 +14°C° 0 mm 1 m/s 723 mmHg 60%
    03:00 +14°C° 0 mm 1 m/s 722 mmHg 62%
    04:00 +14°C° 0 mm 1 m/s 722 mmHg 63%
    05:00 +14°C° 0 mm 1 m/s 722 mmHg 65%
    06:00 +14°C° 0 mm 1 m/s 722 mmHg 64%
    07:00 +15°C° 0 mm 1 m/s 723 mmHg 64%
    08:00 +16°C° 0 mm 1 m/s 723 mmHg 63%
    09:00 +19°C° 0 mm 1 m/s 723 mmHg 55%
    10:00 +21°C° 0 mm 1 m/s 723 mmHg 47%
    11:00 +23°C° 0 mm 1 m/s 724 mmHg 39%
    12:00 +24°C° 0 mm 1 m/s 723 mmHg 38%
    13:00 +24°C° 0 mm 1 m/s 723 mmHg 37%
    14:00 +24°C° 0 mm 1 m/s 723 mmHg 36%
    15:00 +23°C° 0 mm 1 m/s 722 mmHg 39%
    16:00 +22°C° 0 mm 1 m/s 722 mmHg 43%
    17:00 +21°C° 0 mm 1 m/s 722 mmHg 47%
    18:00 +20°C° 0 mm 1 m/s 722 mmHg 50%
    19:00 +18°C° 0 mm 1 m/s 722 mmHg 54%
    20:00 +16°C° 0 mm 1 m/s 722 mmHg 58%
    21:00 +15°C° 0 mm 1 m/s 723 mmHg 60%
    22:00 +15°C° 0 mm 1 m/s 723 mmHg 62%
    23:00 +14°C° 0 mm 1 m/s 723 mmHg 63%

    22 Octombrie, Duminică

    Timp Temperatura Precipitaţii Vânt Presiune Umiditate
    00:00 +14°C° 0 mm 1 m/s 723 mmHg 65%
    01:00 +14°C° 0 mm 1 m/s 723 mmHg 66%
    02:00 +13°C° 0 mm 1 m/s 722 mmHg 67%
    03:00 +13°C° 0 mm 1 m/s 722 mmHg 69%
    04:00 +13°C° 0 mm 1 m/s 722 mmHg 70%
    05:00 +12°C° 0 mm 1 m/s 722 mmHg 71%
    06:00 +13°C° 0 mm 1 m/s 722 mmHg 69%
    07:00 +14°C° 0 mm 1 m/s 722 mmHg 67%
    08:00 +15°C° 0 mm 1 m/s 723 mmHg 64%
    09:00 +18°C° 0 mm 1 m/s 723 mmHg 57%
    10:00 +20°C° 0 mm 1 m/s 723 mmHg 49%
    11:00 +22°C° 0 mm 1 m/s 723 mmHg 41%
    12:00 +22°C° 0 mm 1 m/s 722 mmHg 40%
    13:00 +23°C° 0 mm 2 m/s 721 mmHg 39%
    14:00 +23°C° 0 mm 2 m/s 721 mmHg 38%
    15:00 +21°C° 0 mm 2 m/s 720 mmHg 41%
    16:00 +20°C° 0 mm 2 m/s 720 mmHg 45%
    17:00 +20°C° 0 mm 1 m/s 719 mmHg 49%
    18:00 +18°C° 0 mm 2 m/s 719 mmHg 54%
    19:00 +16°C° 0 mm 2 m/s 719 mmHg 60%
    20:00 +15°C° 0 mm 2 m/s 719 mmHg 65%
    21:00 +14°C° 0 mm 2 m/s 719 mmHg 67%
    22:00 +14°C° 0 mm 2 m/s 719 mmHg 70%
    23:00 +13°C° 0 mm 2 m/s 719 mmHg 72%

    23 Octombrie, Luni

    Timp Temperatura Precipitaţii Vânt Presiune Umiditate
    00:00 +13°C° 0 mm 2 m/s 718 mmHg 74%
    01:00 +13°C° 0 mm 2 m/s 718 mmHg 77%
    02:00 +13°C° 0 mm 2 m/s 718 mmHg 79%
    03:00 +13°C° 0 mm 1 m/s 718 mmHg 81%
    04:00 +13°C° 0 mm 1 m/s 718 mmHg 82%
    05:00 +13°C° 0 mm 1 m/s 717 mmHg 83%
    06:00 +13°C° 0 mm 1 m/s 717 mmHg 82%
    07:00 +14°C° 0 mm 1 m/s 717 mmHg 80%
    08:00 +14°C° 0 mm 1 m/s 717 mmHg 79%
    09:00 +15°C° 0 mm 2 m/s 717 mmHg 72%
    10:00 +17°C° 0 mm 2 m/s 717 mmHg 64%
    11:00 +18°C° 0 mm 3 m/s 716 mmHg 57%
    12:00 +19°C° 0 mm 3 m/s 716 mmHg 57%
    13:00 +19°C° 0 mm 3 m/s 716 mmHg 56%
    14:00 +19°C° 0 mm 3 m/s 715 mmHg 56%
    15:00 +18°C° 0,3 mm 2 m/s 715 mmHg 62%
    16:00 +17°C° 0,3 mm 2 m/s 715 mmHg 68%
    17:00 +16°C° 0,3 mm 2 m/s 714 mmHg 74%
    18:00 +15°C° 0,3 mm 2 m/s 714 mmHg 77%
    19:00 +15°C° 0,3 mm 2 m/s 714 mmHg 80%
    20:00 +14°C° 0,3 mm 2 m/s 714 mmHg 83%
    21:00 +14°C° 0,4 mm 2 m/s 714 mmHg 84%
    22:00 +14°C° 0,4 mm 2 m/s 715 mmHg 85%
    23:00 +13°C° 0,4 mm 2 m/s 715 mmHg 87%
    Arată mai mult